Location: Newark
(18.0634°N, 63.0549°W)
Time: 12:38:08
(UTC+00:00)

OTV 5 (USA 277) - Pass Details

Date: 25 October 2019
Orbit: 310 x 324 km, 54.5° (Epoch: 17 October)

Event Time Altitude Azimuth Distance (km) Brightness Sun altitude
Exits shadow 09:21:54 18° 248° (WSW) 861 ? -11.8°
Maximum altitude 09:22:14 19° 238° (WSW) 848 ? -11.7°
Drops below altitude 10° 09:24:14 10° 190° (S) 1,213 ? -11.2°
Sets 09:26:31 0° 170° (S) 2,037 ? -10.7°
